Tracking 20036 objects as of 22-Nov-2019
Live streaming from Space Station
objects crossing your sky now

THOR ABLESTAR DEB

Track THOR ABLESTAR DEB now!
10-day predictions


NORAD ID: 2620
Int'l Code: 1963-049H
Perigee: 1,036.4 km
Apogee: 1,060.5 km
Inclination: 89.9 °
Period: 106.0 minutes
Semi major axis: 7419 km
RCS: 0.0132 m2 (small)
Launch date: December 5, 1963
Source: United States (US)
Launch site: AIR FORCE WESTERN TEST RANGE (AFWTR)

Note: This is SATELLITE DEBRIS
aabbcc
Your satellite tracking list
Your tracking list is empty




NASA's NSSDC Master Catalog

Two Line Element Set (TLE):
1  2620U 63049H   19324.86548512  .00000118  00000-0  14880-3 0  9994
2  2620  89.9104  94.8573 0016299 309.6666 205.3767 13.58454459764894
Source of the keplerian elements: AFSPC